Wind_Speed
15 14 11 10 10 12 14 14 15 18 19 19 19 20 21 19 19 20 21 21 21 21 21 21 21 20 19 20 21 20 19 19 20 21 21 21 21 22 23 25 26 26 27 28 28 28 28 27 26 26 25 24 22 21 22 23 24 25 27 28 30 31 33
15 14 11 10 11 10 13 16 17 19 20 20 20 21 21 20 20 21 21 21 20 20 20 20 20 18 17 17 18 18 18 19 21 22 21 20 20 21 23 25 26 27 28 28 28 27 26 26 25 25 24 23 23 22 22 24 26 27 29 30 31 33 34
15 12 11 11 12 11 13 16 19 21 21 20 19 20 21 21 21 21 20 19 18 19 19 19 19 19 19 20 20 20 20 21 22 23 23 22 21 20 22 23 25 27 28 28 27 26 26 26 26 24 23 23 23 23 24 26 27 29 30 31 32 34 35
14 12 12 12 14 14 15 17 20 22 22 22 20 21 22 22 20 18 17 18 18 19 19 19 20 21 23 23 24 23 23 24 25 26 25 24 23 21 21 23 25 27 27 27 27 27 26 27 26 25 24 24 24 25 26 27 29 30 31 32 33 34 35
15 14 12 11 12 13 15 17 18 19 20 20 18 18 19 18 17 16 16 17 18 18 19 19 20 21 23 25 26 27 27 26 26 28 28 26 25 24 24 24 26 28 28 27 27 27 27 27 27 26 25 25 25 26 27 29 30 31 32 33 35 36 36
17 16 12 10 9 9 10 12 15 17 18 17 16 15 15 15 14 14 15 15 16 18 19 19 20 21 22 24 26 28 29 29 29 30 30 29 27 26 26 27 28 28 28 27 27 27 28 28 28 27 26 26 26 27 28 30 30 31 33 34 36 36 37
18 17 11 8 8 6 6 8 9 12 14 14 14 14 14 14 13 14 14 15 16 18 20 21 22 23 23 25 26 27 28 30 33 32 31 31 29 26 25 27 28 27 27 27 27 27 29 29 29 28 28 28 27 28 29 30 31 32 33 35 36 37 38
19 16 10 8 9 7 7 9 8 8 9 9 9 10 11 11 12 13 14 15 17 19 20 22 22 23 24 26 27 27 28 31 33 33 33 33 31 27 25 26 28 28 29 29 28 28 29 29 29 29 29 29 30 30 31 31 31 33 35 36 37 38 40
18 14 10 9 11 8 9 10 9 7 7 7 7 7 8 10 11 13 14 16 17 18 20 22 23 24 25 27 28 28 30 32 34 34 34 34 31 29 29 30 31 30 30 31 30 29 29 29 29 29 29 30 32 32 32 32 33 34 36 37 38 39 41
18 15 10 10 11 9 9 11 10 8 6 7 9 9 10 11 13 15 16 17 17 19 21 24 25 26 28 29 30 30 32 35 36 36 35 33 31 32 33 33 33 32 32 33 32 31 30 29 29 29 30 31 33 33 33 33 34 36 37 39 39 40 42
18 15 11 13 14 10 8 8 8 8 8 9 12 12 12 13 15 16 17 17 18 20 23 26 27 29 30 31 32 33 35 37 38 38 37 33 31 34 35 34 33 33 33 34 33 31 31 30 29 29 30 32 33 34 34 34 36 38 39 39 40 40 41
17 15 13 15 18 15 11 10 9 9 11 14 15 14 13 14 15 16 17 19 21 23 26 28 29 30 31 33 35 36 37 39 40 39 38 34 33 35 36 35 34 33 34 35 34 32 31 30 29 29 30 32 33 34 35 36 37 38 39 40 39 39 40
16 16 15 18 21 20 17 15 15 15 16 18 17 14 14 15 17 19 21 24 25 27 29 30 31 32 33 34 36 38 39 40 41 40 38 37 35 36 37 37 35 33 34 37 37 35 32 30 29 31 32 33 34 34 36 37 38 39 39 39 38 39 41
18 18 19 21 23 23 22 21 21 20 19 18 18 17 18 20 22 25 27 29 31 32 33 34 34 34 34 35 37 39 40 42 43 43 40 38 38 38 38 37 35 34 36 38 37 35 33 31 31 32 33 34 35 36 37 38 39 39 38 38 40 42 42
21 21 21 22 24 25 26 26 26 25 23 22 21 22 24 26 29 30 32 34 36 36 37 37 37 36 37 38 39 41 41 42 44 45 43 40 38 38 40 38 35 34 35 35 35 34 33 32 32 33 35 35 36 37 38 39 39 37 38 41 42 39 38
23 24 23 24 26 27 27 28 28 28 27 26 26 27 29 30 32 34 36 39 41 40 40 40 39 39 39 39 41 43 42 42 45 46 43 40 39 40 41 39 35 34 35 34 33 33 32 32 33 35 36 37 37 37 38 38 37 37 38 38 36 34 38
25 26 25 26 27 28 28 28 29 30 31 31 31 31 31 33 35 37 39 43 45 44 42 40 40 41 40 41 43 43 41 43 47 46 41 39 40 40 40 38 35 34 34 33 32 31 31 32 34 35 36 38 38 38 37 37 36 36 36 35 35 40 45
26 27 27 28 29 30 30 30 30 32 34 35 35 35 35 37 39 40 42 45 47 45 42 40 42 42 41 42 42 42 43 46 47 45 42 42 42 40 38 36 37 36 34 32 30 31 32 33 33 34 36 38 39 38 37 36 37 36 37 38 42 45 46
27 29 29 30 31 32 32 31 32 34 36 38 39 38 38 40 41 42 45 47 47 45 43 42 43 43 41 41 41 42 45 46 45 44 45 44 44 45 42 39 39 40 37 33 30 31 33 33 33 34 36 39 40 38 37 38 39 38 39 41 44 46 47
28 31 32 33 34 34 33 33 35 37 39 40 40 40 41 42 42 44 47 48 46 43 42 42 42 42 42 41 42 43 43 43 44 45 46 46 47 48 44 41 41 40 37 33 31 32 33 33 33 34 36 39 39 38 38 40 41 41 41 43 46 48 49
31 33 34 36 36 35 34 36 38 39 40 41 41 42 43 43 44 46 46 45 43 41 41 42 42 43 44 44 44 43 43 43 44 45 47 47 47 48 47 43 39 35 34 33 32 32 33 33 34 35 37 38 37 37 39 41 42 42 43 45 47 49 50
34 36 38 39 37 34 35 38 40 40 41 42 42 43 44 45 46 47 46 42 40 40 41 42 42 44 45 45 44 42 44 46 44 44 46 47 49 53 50 40 33 31 33 35 34 34 34 34 34 35 37 37 37 39 41 42 41 42 44 46 49 50 50
38 39 39 39 36 35 37 40 41 43 44 43 42 43 45 46 47 47 45 43 41 42 43 43 43 44 44 44 42 42 47 49 46 46 47 46 49 51 43 32 30 31 33 35 36 35 34 33 34 36 37 36 37 38 39 40 40 42 45 48 49 50 49
40 39 38 38 38 38 40 42 44 45 45 44 44 46 47 48 47 47 46 45 44 44 45 45 45 45 45 44 43 45 49 48 45 46 46 42 40 38 31 28 31 34 35 36 36 34 33 33 35 36 36 36 37 37 39 42 44 46 47 48 49 49 48
42 39 37 38 39 40 43 44 45 46 45 44 46 49 50 49 48 47 47 46 45 45 46 46 46 46 47 47 46 46 46 41 38 41 41 36 32 30 30 32 37 39 38 35 33 32 32 33 35 35 35 36 39 39 41 44 46 47 48 49 48 48 49
43 40 39 41 42 44 46 46 46 47 46 46 48 50 51 50 48 48 49 48 48 48 47 47 47 47 48 49 47 43 40 36 34 36 38 35 30 31 33 34 36 34 31 31 33 32 32 33 34 34 34 36 39 40 43 45 47 48 49 49 48 49 49
43 42 44 46 48 49 48 46 46 48 48 48 50 51 52 52 50 49 49 48 49 49 48 47 46 46 47 49 47 41 37 35 34 36 37 34 31 34 38 37 35 33 35 39 41 38 35 34 35 35 35 36 39 43 46 47 48 48 48 48 49 49 48
44 45 48 50 52 52 50 49 48 49 49 50 52 53 54 53 50 48 47 48 49 48 47 45 43 43 44 45 42 37 35 36 37 37 38 37 39 44 46 44 41 41 43 44 41 37 35 34 33 35 37 39 42 46 47 47 47 48 48 48 48 48 48
46 49 52 52 53 53 53 52 51 50 50 52 53 54 53 51 48 47 48 48 47 45 43 42 40 39 39 37 34 33 34 35 36 37 37 39 42 44 43 41 40 39 37 34 31 32 33 32 32 35 39 42 45 45 45 45 46 47 47 47 47 48 48
49 52 53 53 54 54 55 56 55 54 52 51 50 49 48 47 47 47 45 43 40 38 37 37 37 37 35 31 31 35 35 34 34 35 37 39 39 36 34 34 33 33 32 32 32 34 34 33 35 39 42 43 44 43 44 45 46 46 46 47 48 49 49
51 53 54 54 55 56 58 58 57 54 50 47 45 46 46 46 46 43 40 38 36 35 35 35 35 34 32 31 32 34 34 34 36 38 42 43 39 34 33 32 33 37 39 39 36 34 33 35 40 43 44 43 43 44 45 45 45 46 47 49 50 51 49
56 55 55 56 57 59 60 59 56 52 48 44 44 45 45 45 44 41 38 36 35 34 34 34 33 32 31 31 31 31 32 35 38 42 46 48 46 42 39 40 45 47 44 40 35 33 34 39 43 43 43 43 43 44 45 45 46 48 50 51 51 49 47
57 57 56 57 58 58 57 56 53 47 43 42 43 44 44 43 42 39 37 35 34 34 33 34 34 33 32 33 33 32 33 36 40 44 48 51 51 48 46 48 51 48 42 36 34 35 40 45 44 41 41 42 43 45 45 47 49 50 51 51 49 46 43
52 53 54 54 55 54 54 55 52 44 39 40 43 43 43 42 40 38 36 34 33 33 33 34 34 34 34 34 33 33 35 39 44 48 51 54 54 51 49 48 47 43 40 37 36 41 52 54 47 44 44 44 46 48 48 50 51 51 50 48 45 43 40
50 51 51 52 53 53 53 52 48 42 38 39 40 40 40 40 39 38 37 35 34 34 34 35 35 35 35 33 30 32 36 40 43 45 45 45 44 43 43 42 41 41 42 41 44 52 60 57 51 48 47 47 49 50 50 51 51 49 47 44 42 40 38
54 54 54 54 53 51 46 41 38 36 35 35 36 38 39 40 40 39 38 37 36 36 36 35 35 34 34 32 33 36 38 39 38 35 33 32 34 39 42 44 44 46 48 50 53 57 57 53 49 47 47 49 51 51 51 51 49 46 44 42 40 38 37
49 50 49 47 44 39 35 32 31 31 32 33 35 38 39 40 40 40 39 39 39 39 39 38 37 35 35 36 37 38 38 37 37 36 35 37 42 48 49 49 49 50 51 53 54 54 51 48 46 46 48 51 51 50 50 48 46 44 42 40 38 37 36
36 36 35 34 32 30 30 30 31 31 32 34 36 37 39 41 42 41 41 40 41 41 42 42 41 40 40 40 41 40 39 39 40 41 43 45 48 51 52 51 49 48 48 49 50 49 47 46 45 47 50 51 50 48 48 47 45 43 41 39 38 37 36
Wind_Direction
293 302 312 313 294 262 245 247 248 246 247 251 255 258 261 263 264 264 265 267 271 276 279 280 282 284 285 285 285 285 282 279 279 281 283 286 291 294 294 293 294 294 294 295 296 298 300 300 302 303 302 300 300 301 301 302 302 302 303 305 308 312 315
292 298 305 316 313 281 250 246 248 249 252 255 257 258 258 257 259 261 263 267 272 277 281 285 289 290 290 291 292 292 289 286 286 285 283 284 287 289 289 289 290 290 291 292 294 296 297 298 299 299 299 299 300 301 301 302 302 301 303 305 309 312 315
289 298 307 311 310 292 265 253 251 252 252 252 252 253 253 253 257 262 267 273 278 282 285 289 294 296 298 299 296 294 295 297 298 296 292 289 288 287 286 285 286 287 289 291 294 295 295 295 295 296 297 298 300 301 302 302 302 301 302 304 308 311 313
282 297 312 310 301 290 272 258 254 253 252 250 248 248 250 254 259 265 271 278 284 288 290 293 297 301 304 303 299 296 298 301 304 303 299 295 289 286 285 285 285 287 289 292 294 295 294 292 292 294 297 299 301 302 303 303 301 300 301 303 305 308 311
279 297 308 302 297 294 282 266 257 253 250 248 245 244 248 255 261 267 272 280 288 292 292 296 300 302 301 299 297 297 298 301 304 304 301 297 292 287 286 288 289 289 291 292 293 294 293 291 290 292 296 299 301 303 303 302 301 300 301 302 304 307 311
280 296 299 286 288 304 300 282 266 257 248 244 243 243 249 259 267 272 276 283 289 291 294 299 303 302 301 298 296 297 299 300 302 303 301 298 296 291 288 288 290 293 294 293 293 293 294 291 288 290 295 298 301 302 302 302 302 302 303 303 306 309 312
282 290 284 274 289 316 333 321 295 269 255 248 246 246 251 259 267 273 280 286 290 294 299 301 303 304 304 303 300 299 299 297 298 300 299 297 296 292 287 285 287 293 296 295 293 292 291 289 287 290 294 298 301 302 302 303 304 305 306 307 309 311 313
281 280 269 282 303 319 335 334 323 296 273 264 257 251 251 254 262 273 282 290 294 298 300 300 302 304 305 305 302 296 294 292 293 296 296 295 295 291 286 284 285 292 296 295 292 290 288 288 289 291 294 297 301 303 304 305 306 307 308 309 310 311 311
277 273 270 300 312 312 311 311 311 301 290 294 296 283 268 260 263 272 280 287 292 296 299 299 302 304 304 305 301 294 292 291 291 292 292 293 293 289 286 284 285 291 294 293 291 288 287 290 293 293 295 299 302 304 306 306 306 307 308 308 308 309 310
274 271 279 309 312 304 299 293 286 281 287 315 318 303 284 270 266 270 274 280 286 292 296 298 300 303 303 302 298 293 292 291 290 290 290 291 290 287 286 283 284 289 292 292 292 289 289 293 296 296 298 301 303 304 305 304 304 306 307 307 307 308 309
273 272 286 310 309 308 316 309 292 272 267 298 309 298 284 276 273 274 275 280 287 293 297 298 299 301 300 297 294 292 292 291 290 290 290 290 288 285 284 281 281 287 290 290 292 292 290 293 298 300 301 303 303 304 303 303 304 307 307 308 308 308 309
273 276 292 308 308 309 317 319 311 287 278 291 300 293 285 287 289 289 289 291 293 295 296 297 297 297 295 293 291 291 292 290 290 291 291 289 285 283 283 280 279 284 288 290 292 294 291 292 300 305 304 304 302 301 302 304 307 308 307 308 308 308 309
275 282 297 309 310 310 311 312 310 303 298 301 303 301 302 304 305 305 305 305 303 302 301 299 298 296 294 293 293 293 292 290 289 290 288 285 282 281 282 281 278 280 286 290 294 296 293 292 299 306 305 303 301 301 304 307 307 306 306 307 308 308 309
279 289 301 307 309 310 312 314 315 316 315 312 309 309 310 311 313 315 317 316 313 309 307 304 301 299 297 296 296 294 292 290 289 288 286 283 281 279 281 282 279 279 283 287 293 298 295 291 295 303 305 302 300 301 304 305 305 305 305 306 307 308 308
285 295 304 307 308 310 313 314 315 318 319 318 315 312 310 312 315 316 317 317 314 309 307 304 302 302 301 299 296 294 292 288 285 285 285 285 282 279 279 279 277 276 279 285 292 297 295 289 290 297 302 302 300 301 302 303 304 304 304 305 306 306 307
290 300 305 305 305 307 309 311 312 313 313 314 313 311 311 313 314 313 312 313 313 309 305 304 305 305 303 299 296 293 291 285 281 283 286 287 284 280 277 275 273 274 279 286 291 293 292 287 286 293 300 301 299 299 300 302 304 304 307 309 308 308 310
296 302 303 301 300 301 303 305 307 306 305 307 307 307 310 313 312 310 308 309 310 307 302 302 307 307 303 299 297 294 291 285 282 283 284 281 277 276 275 271 270 274 280 286 289 290 289 287 286 291 298 300 298 296 297 303 305 306 309 312 311 311 313
294 296 296 295 294 295 298 300 301 301 301 303 304 305 309 310 310 309 308 307 306 305 302 303 307 307 303 301 300 296 291 285 280 278 278 273 270 271 273 271 269 272 278 285 289 289 289 288 288 292 297 299 296 292 294 304 309 308 308 310 311 313 314
287 288 288 289 290 291 293 295 296 295 298 300 302 304 307 307 308 310 308 306 305 305 305 305 306 305 302 301 299 295 290 282 274 275 278 275 271 271 272 270 269 270 274 280 285 287 287 288 288 292 296 297 294 289 291 302 309 308 308 310 311 313 314
278 280 281 282 285 287 289 291 291 291 295 297 298 301 303 305 307 308 307 306 307 308 306 305 304 301 298 298 297 296 294 286 278 279 281 278 274 270 268 270 273 270 267 271 281 286 286 286 287 290 294 295 293 290 292 300 306 307 308 310 312 313 314
271 273 275 277 279 282 285 286 286 289 292 293 295 298 301 303 305 306 307 307 307 306 304 302 300 297 297 297 297 298 298 292 285 281 278 277 274 267 266 272 276 270 261 265 279 286 285 284 285 288 293 295 296 296 297 301 304 306 307 308 310 312 314
266 269 272 274 275 278 280 280 283 288 288 288 291 295 298 301 302 304 305 303 301 302 301 300 299 297 297 297 298 299 296 291 286 281 278 279 273 267 267 272 271 264 260 266 279 286 285 283 283 286 291 296 300 302 302 302 303 305 306 307 309 312 314
263 267 270 272 273 274 275 277 282 284 284 285 288 291 294 298 299 300 301 297 295 296 298 299 300 300 298 298 298 295 290 289 287 282 279 279 275 270 270 271 269 266 266 270 278 284 283 280 281 286 292 298 303 305 304 303 305 308 308 308 310 312 314
258 261 265 268 270 272 274 276 278 280 281 284 286 288 291 294 296 296 296 294 292 293 295 297 298 298 296 295 296 294 291 291 291 286 280 273 269 272 274 275 277 275 271 273 279 283 281 278 281 287 292 298 303 304 302 304 308 309 309 309 311 312 313
253 255 260 264 266 267 270 272 273 274 277 281 285 288 290 292 293 294 294 294 292 292 293 294 294 294 294 294 296 297 293 289 290 291 282 266 262 273 281 285 287 280 271 274 283 283 279 279 284 289 293 298 303 304 305 307 308 309 309 310 312 312 313
258 256 257 259 261 262 264 266 268 270 273 277 282 285 288 290 292 294 294 293 292 291 291 292 293 295 295 295 297 297 291 286 288 289 279 264 266 278 283 287 289 278 269 280 290 286 282 283 287 289 292 296 300 303 308 309 308 308 310 311 311 312 313
263 261 259 259 260 261 262 263 266 269 272 276 281 283 285 287 289 291 291 290 289 289 290 291 294 295 295 295 295 292 289 288 288 284 274 269 276 283 283 284 282 274 274 286 291 287 284 285 287 289 293 297 299 302 307 308 308 309 310 310 311 312 313
259 257 257 259 261 263 264 264 268 271 275 279 282 283 284 285 285 285 285 284 285 286 287 289 291 292 294 296 294 289 288 287 282 275 273 275 280 282 281 280 277 276 281 287 289 287 284 284 286 291 296 300 301 303 306 306 307 309 309 310 311 312 313
258 255 255 259 262 265 267 269 272 276 279 282 284 285 285 285 284 283 282 281 282 283 283 286 287 288 294 298 293 288 288 285 276 271 272 279 284 285 283 277 272 275 281 283 281 281 283 286 291 294 298 300 302 304 305 305 307 307 308 309 311 312 315
262 259 258 261 264 266 270 274 277 280 281 282 283 285 286 287 287 286 285 284 283 281 282 284 285 289 294 294 289 288 287 282 278 278 281 286 289 287 281 272 267 270 273 270 267 270 278 288 295 298 300 302 303 303 304 304 306 307 308 310 312 314 315
262 261 262 265 268 270 274 277 279 279 278 278 279 282 285 286 288 288 287 286 284 282 283 284 285 288 290 287 286 289 287 283 283 286 288 291 289 279 269 267 272 276 275 271 270 273 280 290 298 301 303 303 303 303 304 305 307 309 310 312 313 313 314
263 262 264 266 269 271 274 276 277 274 273 274 276 279 282 284 285 286 286 285 284 284 284 284 284 285 286 286 288 288 285 283 283 285 286 287 285 276 267 271 279 280 278 278 277 278 287 297 302 303 302 302 303 304 306 307 309 310 311 311 311 312 312
265 263 264 266 268 270 272 274 274 272 271 274 276 279 280 281 282 284 284 284 284 283 281 281 282 283 286 289 291 290 288 287 287 285 283 282 282 277 271 274 280 279 279 281 279 282 294 303 304 303 304 305 307 307 308 309 310 310 309 309 310 310 311
266 264 264 266 268 271 273 274 272 271 272 276 278 280 281 281 282 283 283 282 280 278 277 278 282 286 289 291 292 293 296 297 295 291 285 283 281 277 274 278 282 280 279 278 278 287 299 304 306 308 310 310 309 309 309 309 308 307 307 308 308 309 309
266 264 263 263 265 269 272 271 270 270 273 277 278 279 280 281 282 283 283 281 278 277 277 279 282 286 289 289 291 294 297 299 298 294 290 286 282 278 279 283 287 286 284 280 281 290 297 300 303 307 309 308 308 307 306 305 304 305 306 307 307 308 308
266 264 262 263 266 270 272 271 272 273 275 276 278 279 281 281 282 282 281 279 278 279 279 280 282 285 285 286 290 293 294 296 297 293 286 281 281 284 287 288 288 288 288 285 286 290 294 297 300 304 306 306 305 303 302 302 303 305 307 307 307 308 307
269 266 265 267 271 274 274 274 276 277 277 277 277 279 279 280 279 279 278 278 279 280 281 282 284 286 285 284 287 290 292 293 295 290 283 279 282 286 288 288 288 288 288 288 289 291 293 296 300 303 304 303 301 299 299 301 304 307 307 306 306 306 304
275 274 274 275 276 279 280 279 279 279 278 278 277 276 275 275 274 275 276 277 278 280 283 286 287 287 286 287 289 291 292 292 292 290 287 285 285 287 289 290 291 291 290 289 289 290 293 296 299 300 300 299 298 299 302 304 307 308 307 305 304 303 301
Height
5900 5900 5898 5897 5896 5895 5895 5896 5896 5897 5897 5898 5898 5898 5898 5899 5899 5898 5898 5898 5898 5897 5897 5896 5896 5896 5896 5894 5893 5892 5892 5891 5891 5890 5889 5888 5886 5884 5883 5882 5881 5880 5879 5879 5878 5877 5876 5876 5875 5874 5872 5871 5869 5868 5867 5866 5865 5863 5862 5861 5860 5859 5857
5898 5898 5897 5896 5895 5894 5894 5894 5894 5895 5895 5896 5896 5896 5896 5896 5896 5896 5896 5895 5895 5895 5895 5894 5894 5894 5893 5892 5890 5890 5889 5889 5888 5887 5887 5886 5884 5883 5882 5880 5879 5879 5878 5877 5876 5875 5875 5874 5873 5871 5870 5868 5866 5865 5864 5863 5862 5860 5859 5858 5857 5855 5854
5897 5896 5896 5895 5894 5893 5893 5893 5893 5893 5893 5894 5894 5894 5894 5894 5894 5894 5894 5893 5893 5893 5893 5892 5891 5891 5890 5889 5888 5887 5887 5886 5885 5885 5884 5883 5882 5881 5880 5879 5878 5877 5876 5875 5874 5873 5872 5871 5870 5869 5867 5865 5864 5862 5861 5860 5859 5858 5856 5855 5853 5852 5850
5895 5895 5894 5893 5892 5891 5891 5891 5891 5890 5891 5891 5892 5892 5892 5892 5892 5892 5892 5891 5891 5891 5891 5890 5889 5889 5887 5886 5885 5884 5884 5884 5883 5882 5881 5880 5879 5878 5877 5876 5875 5874 5873 5872 5871 5870 5870 5869 5868 5866 5865 5863 5861 5859 5858 5857 5856 5855 5853 5852 5850 5849 5847
5893 5893 5893 5891 5890 5889 5888 5888 5888 5888 5888 5889 5890 5891 5891 5891 5891 5891 5890 5890 5889 5889 5889 5888 5888 5887 5886 5885 5883 5882 5881 5881 5880 5879 5877 5876 5876 5875 5874 5873 5872 5871 5870 5869 5868 5867 5867 5866 5865 5864 5862 5860 5858 5857 5855 5854 5853 5851 5850 5849 5847 5846 5844
5890 5891 5890 5889 5888 5888 5887 5886 5886 5886 5886 5887 5888 5889 5889 5889 5889 5889 5889 5888 5888 5887 5887 5886 5886 5885 5884 5883 5882 5880 5879 5878 5877 5876 5874 5873 5873 5872 5871 5870 5869 5869 5868 5867 5866 5865 5864 5863 5862 5861 5859 5858 5856 5854 5852 5851 5850 5848 5847 5845 5844 5842 5840
5888 5888 5888 5887 5887 5886 5886 5885 5885 5885 5885 5886 5887 5887 5888 5888 5887 5887 5887 5886 5886 5885 5884 5883 5883 5882 5881 5880 5879 5878 5877 5875 5874 5873 5872 5870 5869 5868 5868 5867 5867 5866 5865 5864 5863 5862 5861 5860 5858 5857 5856 5855 5853 5851 5850 5848 5846 5845 5843 5841 5839 5838 5836
5886 5886 5886 5885 5885 5884 5884 5883 5884 5884 5884 5884 5885 5885 5885 5885 5885 5885 5885 5884 5884 5883 5882 5881 5880 5879 5878 5877 5876 5875 5874 5872 5870 5869 5868 5867 5866 5865 5864 5864 5863 5862 5861 5860 5859 5858 5857 5856 5855 5854 5853 5851 5850 5848 5846 5845 5843 5841 5839 5837 5835 5834 5832
5883 5883 5884 5883 5883 5882 5882 5882 5882 5882 5883 5883 5883 5883 5883 5883 5884 5884 5883 5883 5882 5881 5879 5878 5877 5876 5875 5874 5873 5871 5870 5868 5866 5865 5864 5863 5862 5861 5861 5860 5859 5858 5857 5856 5856 5855 5854 5852 5851 5850 5849 5848 5846 5845 5843 5841 5839 5837 5835 5833 5831 5830 5828
5881 5881 5881 5881 5881 5881 5881 5881 5881 5881 5882 5882 5882 5882 5882 5882 5882 5882 5881 5881 5880 5878 5877 5875 5874 5873 5871 5870 5869 5868 5867 5865 5863 5861 5861 5860 5859 5858 5857 5855 5854 5853 5853 5852 5852 5851 5850 5849 5847 5846 5845 5844 5843 5841 5839 5837 5836 5833 5831 5829 5828 5826 5824
5878 5878 5879 5879 5879 5879 5880 5880 5880 5880 5880 5881 5881 5880 5880 5880 5880 5880 5879 5878 5877 5876 5874 5872 5871 5869 5868 5866 5865 5864 5863 5861 5858 5857 5857 5857 5856 5855 5853 5851 5850 5850 5849 5848 5848 5847 5846 5845 5844 5842 5841 5840 5839 5837 5836 5834 5831 5829 5827 5825 5824 5822 5821
5875 5875 5876 5875 5875 5876 5877 5877 5878 5878 5878 5878 5879 5879 5878 5878 5878 5877 5877 5876 5875 5873 5871 5869 5868 5866 5864 5863 5861 5859 5858 5856 5854 5853 5854 5853 5852 5851 5849 5847 5846 5846 5846 5845 5844 5844 5843 5841 5840 5838 5837 5836 5835 5834 5832 5829 5827 5825 5823 5821 5820 5818 5816
5872 5872 5873 5872 5872 5872 5873 5874 5875 5875 5875 5875 5875 5875 5875 5875 5875 5875 5874 5872 5871 5870 5868 5867 5865 5863 5861 5859 5857 5855 5853 5851 5850 5849 5849 5848 5847 5846 5845 5844 5843 5843 5842 5841 5840 5839 5838 5837 5836 5834 5833 5832 5831 5830 5828 5825 5823 5821 5819 5817 5815 5813 5812
5869 5869 5870 5869 5869 5869 5869 5870 5871 5871 5871 5871 5871 5871 5871 5871 5871 5870 5869 5868 5867 5866 5864 5863 5861 5860 5858 5856 5854 5851 5849 5847 5845 5844 5844 5843 5843 5842 5841 5840 5840 5840 5839 5838 5836 5835 5833 5833 5832 5830 5829 5828 5827 5826 5824 5821 5819 5817 5815 5813 5811 5809 5807
5865 5865 5866 5867 5866 5866 5866 5866 5866 5866 5867 5867 5867 5867 5867 5867 5866 5865 5864 5864 5863 5862 5860 5859 5858 5856 5855 5852 5850 5847 5846 5843 5839 5837 5837 5838 5838 5837 5836 5835 5836 5835 5835 5834 5832 5830 5828 5828 5827 5826 5825 5823 5823 5821 5819 5817 5815 5812 5810 5808 5806 5804 5803
5861 5862 5863 5863 5863 5863 5862 5862 5862 5862 5863 5863 5863 5863 5863 5863 5862 5861 5860 5859 5858 5857 5856 5854 5853 5852 5850 5848 5845 5843 5841 5838 5834 5832 5832 5833 5833 5831 5830 5830 5830 5830 5830 5829 5828 5826 5824 5823 5822 5821 5820 5819 5818 5817 5815 5813 5810 5808 5806 5804 5802 5800 5798
5858 5858 5859 5859 5859 5859 5859 5859 5860 5859 5859 5860 5860 5860 5860 5859 5858 5857 5856 5854 5853 5851 5850 5849 5848 5847 5846 5843 5839 5837 5835 5832 5827 5826 5826 5825 5824 5824 5824 5825 5826 5826 5826 5826 5824 5822 5820 5819 5818 5817 5815 5815 5814 5812 5810 5808 5806 5804 5802 5800 5798 5796 5794
5855 5855 5856 5856 5855 5855 5856 5856 5856 5856 5856 5856 5856 5855 5855 5854 5854 5853 5851 5849 5848 5845 5844 5843 5843 5842 5840 5837 5834 5832 5829 5824 5820 5819 5819 5819 5819 5818 5819 5821 5821 5822 5822 5822 5820 5817 5815 5814 5813 5812 5810 5810 5808 5807 5805 5803 5801 5799 5797 5795 5793 5791 5788
5852 5852 5852 5852 5852 5852 5852 5853 5852 5852 5852 5852 5852 5851 5851 5850 5849 5848 5846 5844 5843 5841 5839 5839 5839 5837 5835 5832 5830 5827 5825 5822 5820 5819 5819 5819 5819 5817 5816 5816 5817 5817 5817 5817 5815 5813 5811 5809 5807 5806 5805 5804 5803 5802 5800 5798 5796 5794 5792 5790 5788 5786 5783
5849 5849 5849 5849 5849 5849 5849 5849 5848 5848 5848 5848 5847 5847 5846 5845 5844 5844 5841 5839 5839 5838 5836 5835 5834 5832 5829 5827 5825 5823 5822 5822 5822 5821 5818 5816 5813 5811 5810 5810 5810 5811 5811 5811 5810 5808 5806 5804 5802 5801 5801 5799 5798 5796 5794 5793 5791 5789 5787 5785 5783 5780 5777
5845 5845 5845 5845 5845 5845 5845 5845 5844 5844 5844 5843 5842 5841 5841 5840 5840 5839 5837 5836 5834 5833 5832 5831 5829 5827 5824 5822 5820 5819 5817 5816 5816 5814 5811 5809 5807 5803 5803 5804 5804 5804 5805 5805 5804 5802 5800 5799 5798 5797 5796 5795 5792 5791 5789 5787 5786 5784 5782 5780 5777 5774 5771
5841 5841 5841 5841 5841 5842 5841 5840 5840 5840 5839 5838 5837 5836 5836 5835 5835 5834 5833 5832 5831 5830 5828 5826 5825 5822 5819 5817 5815 5814 5811 5808 5807 5806 5804 5804 5801 5796 5796 5798 5799 5798 5799 5799 5799 5797 5795 5794 5794 5793 5792 5790 5787 5785 5783 5782 5780 5779 5777 5774 5771 5768 5765
5836 5836 5836 5837 5837 5837 5836 5835 5836 5835 5834 5834 5833 5832 5832 5831 5831 5830 5829 5828 5827 5826 5824 5822 5820 5818 5815 5812 5810 5808 5805 5802 5801 5800 5800 5798 5794 5791 5792 5795 5794 5794 5795 5794 5793 5792 5791 5790 5789 5788 5787 5785 5783 5780 5778 5775 5775 5774 5771 5768 5765 5763 5759
5831 5831 5832 5832 5833 5833 5832 5832 5831 5830 5829 5829 5828 5828 5827 5827 5827 5826 5825 5824 5823 5821 5819 5818 5816 5813 5810 5808 5805 5801 5799 5798 5796 5794 5793 5793 5790 5788 5791 5793 5791 5790 5789 5788 5787 5787 5786 5786 5785 5784 5782 5780 5778 5776 5773 5770 5769 5768 5765 5762 5760 5757 5754
5826 5827 5827 5828 5829 5829 5828 5827 5826 5825 5825 5824 5823 5823 5822 5822 5822 5821 5820 5819 5818 5816 5814 5812 5810 5808 5805 5802 5800 5797 5794 5793 5792 5789 5787 5787 5786 5786 5789 5790 5787 5784 5782 5781 5782 5782 5782 5781 5780 5778 5777 5775 5773 5770 5768 5766 5764 5761 5759 5756 5754 5752 5749
5821 5822 5822 5823 5823 5823 5822 5822 5821 5820 5820 5820 5819 5818 5817 5817 5817 5816 5815 5814 5812 5810 5809 5807 5805 5803 5799 5796 5795 5794 5790 5787 5788 5785 5782 5781 5782 5783 5785 5786 5784 5780 5776 5776 5778 5778 5777 5777 5775 5773 5773 5772 5769 5766 5764 5761 5759 5756 5754 5751 5749 5747 5745
5817 5818 5817 5817 5817 5817 5816 5816 5815 5814 5815 5815 5815 5814 5813 5813 5813 5812 5810 5808 5806 5805 5804 5803 5800 5797 5794 5790 5789 5789 5786 5784 5784 5781 5776 5776 5778 5779 5780 5782 5782 5779 5776 5774 5774 5774 5773 5772 5770 5768 5768 5768 5765 5762 5759 5756 5753 5751 5749 5747 5745 5743 5740
5812 5813 5812 5812 5812 5811 5811 5810 5810 5810 5810 5810 5810 5809 5809 5808 5808 5808 5805 5803 5802 5801 5800 5798 5795 5792 5789 5786 5785 5784 5783 5781 5779 5776 5772 5773 5774 5775 5776 5777 5777 5776 5774 5772 5771 5769 5767 5766 5766 5764 5763 5762 5760 5757 5754 5751 5749 5746 5744 5742 5740 5738 5734
5808 5807 5807 5807 5806 5806 5806 5806 5806 5806 5805 5804 5804 5803 5802 5802 5802 5802 5800 5797 5796 5796 5795 5792 5790 5788 5785 5783 5782 5781 5780 5776 5773 5771 5771 5771 5771 5771 5771 5771 5771 5769 5768 5767 5766 5764 5762 5761 5762 5761 5759 5757 5755 5752 5750 5747 5745 5742 5740 5738 5735 5732 5728
5803 5802 5801 5801 5801 5801 5801 5801 5801 5801 5800 5799 5798 5797 5796 5796 5795 5795 5793 5791 5791 5790 5789 5787 5785 5782 5781 5780 5779 5778 5777 5772 5767 5766 5767 5767 5767 5765 5764 5763 5763 5762 5761 5761 5760 5759 5758 5758 5757 5756 5754 5752 5750 5748 5745 5743 5740 5737 5735 5732 5728 5725 5722
5797 5797 5797 5797 5796 5796 5795 5795 5795 5795 5794 5793 5792 5791 5791 5790 5789 5788 5787 5786 5785 5784 5783 5781 5779 5777 5775 5775 5774 5774 5773 5769 5765 5763 5761 5760 5759 5759 5758 5758 5757 5756 5755 5756 5755 5755 5754 5753 5752 5750 5748 5746 5744 5742 5740 5737 5734 5731 5728 5725 5722 5719 5716
5792 5792 5792 5791 5791 5790 5790 5790 5789 5789 5788 5787 5786 5786 5785 5784 5783 5782 5781 5780 5779 5779 5777 5776 5774 5772 5771 5770 5769 5769 5768 5766 5764 5761 5758 5756 5755 5755 5755 5754 5752 5750 5750 5751 5751 5750 5749 5748 5746 5744 5742 5740 5738 5736 5733 5730 5727 5724 5721 5718 5716 5714 5711
5787 5786 5786 5785 5784 5784 5784 5783 5783 5783 5782 5781 5780 5780 5779 5779 5778 5777 5776 5776 5775 5773 5772 5770 5769 5768 5766 5765 5764 5763 5763 5762 5760 5758 5755 5753 5751 5751 5751 5750 5748 5747 5746 5746 5745 5745 5744 5742 5740 5739 5736 5734 5731 5729 5726 5723 5720 5717 5715 5713 5711 5709 5705
5781 5780 5779 5778 5777 5777 5777 5777 5776 5776 5776 5775 5774 5774 5773 5773 5772 5771 5771 5771 5770 5768 5766 5765 5763 5762 5761 5759 5758 5758 5757 5756 5754 5751 5749 5746 5745 5746 5747 5746 5744 5743 5742 5741 5740 5739 5737 5736 5734 5731 5729 5726 5724 5721 5719 5716 5714 5712 5711 5709 5706 5703 5700
5775 5773 5772 5771 5770 5771 5772 5771 5770 5770 5770 5770 5769 5768 5767 5767 5767 5766 5766 5765 5763 5761 5760 5760 5759 5758 5756 5754 5753 5753 5753 5751 5748 5745 5742 5741 5743 5745 5745 5743 5741 5739 5738 5737 5736 5734 5732 5730 5727 5725 5722 5720 5717 5715 5713 5711 5710 5708 5706 5703 5700 5697 5694
5768 5767 5766 5766 5766 5767 5767 5766 5765 5765 5765 5765 5764 5763 5763 5762 5762 5761 5761 5759 5757 5756 5755 5755 5755 5754 5752 5751 5749 5748 5748 5747 5745 5742 5741 5741 5742 5742 5740 5738 5737 5735 5734 5732 5730 5728 5726 5723 5721 5719 5716 5714 5712 5710 5709 5707 5705 5702 5699 5696 5693 5691 5689
5764 5763 5763 5764 5764 5763 5763 5762 5762 5762 5761 5761 5760 5759 5758 5757 5757 5756 5755 5753 5752 5751 5750 5749 5749 5749 5748 5747 5745 5744 5743 5742 5741 5739 5738 5738 5737 5735 5734 5732 5730 5729 5727 5725 5723 5721 5719 5717 5714 5712 5711 5709 5707 5706 5704 5702 5699 5696 5693 5690 5687 5685 5684
5759 5759 5759 5759 5759 5758 5758 5758 5758 5758 5757 5756 5755 5754 5752 5751 5750 5749 5749 5748 5747 5746 5745 5744 5743 5743 5742 5741 5740 5739 5738 5737 5736 5735 5733 5732 5730 5729 5727 5725 5723 5722 5720 5719 5716 5714 5712 5710 5709 5707 5706 5704 5703 5701 5698 5696 5692 5689 5686 5683 5681 5680 5679